Time,TemperatureF,DewpointF,PressureIn,WindDirection,WindDirectionDegrees,WindSpeedMPH,WindSpeedGustMPH,Humidity,HourlyPrecipIn,Conditions,Clouds,dailyrainin,SoftwareType,DateUTC
2013-08-06 00:02:00,63.9,63.9,28.91,SW,221,0.0,0.0,100,0.00,,---,0.00,VWS V14.01,2013-08-06 05:02:00,
2013-08-06 00:07:00,63.9,63.9,28.91,SW,221,0.0,0.0,100,0.00,,---,0.00,VWS V14.01,2013-08-06 05:07:00,
2013-08-06 00:11:00,63.9,63.9,28.91,SW,221,0.0,0.0,100,0.00,,---,0.00,VWS V14.01,2013-08-06 05:11:00,
2013-08-06 00:16:00,63.9,63.9,28.91,SW,221,0.0,0.0,100,0.00,,---,0.00,VWS V14.01,2013-08-06 05:16:00,
2013-08-06 00:21:00,63.9,63.9,28.91,SW,221,0.0,0.0,100,0.00,,---,0.00,VWS V14.01,2013-08-06 05:21:00,
2013-08-06 00:26:00,63.9,63.9,28.91,SW,221,0.0,0.0,100,0.00,,---,0.00,VWS V14.01,2013-08-06 05:26:00,
2013-08-06 00:31:00,63.9,63.9,28.91,SW,221,0.0,0.0,100,0.00,,---,0.00,VWS V14.01,2013-08-06 05:31:00,
2013-08-06 00:36:00,63.9,63.9,28.91,SW,221,0.0,0.0,100,0.00,,---,0.00,VWS V14.01,2013-08-06 05:36:00,
2013-08-06 00:41:00,63.9,63.9,28.91,SW,221,0.0,0.0,100,0.00,,---,0.00,VWS V14.01,2013-08-06 05:41:00,
2013-08-06 00:46:00,63.9,63.9,28.88,SW,221,0.0,0.0,100,0.00,,---,0.00,VWS V14.01,2013-08-06 05:46:00,
2013-08-06 00:51:00,63.7,63.7,28.88,SW,221,0.0,0.0,100,0.00,,---,0.00,VWS V14.01,2013-08-06 05:51:00,
2013-08-06 00:56:00,63.7,63.7,28.88,SW,221,0.0,0.0,100,0.00,,---,0.00,VWS V14.01,2013-08-06 05:56:00,
2013-08-06 01:01:00,63.7,63.7,28.88,SW,221,0.0,0.0,100,0.00,,---,0.00,VWS V14.01,2013-08-06 06:01:00,
2013-08-06 01:06:00,63.7,63.7,28.88,SW,221,0.0,0.0,100,0.00,,---,0.00,VWS V14.01,2013-08-06 06:06:00,
2013-08-06 01:11:00,63.9,63.9,28.88,SW,221,0.0,0.0,100,0.00,,---,0.00,VWS V14.01,2013-08-06 06:11:00,
2013-08-06 01:16:00,63.9,63.9,28.88,SW,221,0.0,0.0,100,0.00,,---,0.00,VWS V14.01,2013-08-06 06:16:00,
2013-08-06 01:21:00,63.9,63.9,28.88,SW,221,0.0,0.0,100,0.00,,---,0.00,VWS V14.01,2013-08-06 06:21:00,
2013-08-06 01:26:00,63.9,63.9,28.88,SW,221,0.0,0.0,100,0.00,,---,0.00,VWS V14.01,2013-08-06 06:26:00,
2013-08-06 01:31:00,63.9,63.9,28.88,SW,221,0.0,0.0,100,0.00,,---,0.00,VWS V14.01,2013-08-06 06:31:00,
2013-08-06 01:36:00,63.9,63.9,28.88,SW,221,0.0,0.0,100,0.00,,---,0.00,VWS V14.01,2013-08-06 06:36:00,
2013-08-06 01:41:00,63.9,63.9,28.88,SW,221,0.0,0.0,100,0.00,,---,0.00,VWS V14.01,2013-08-06 06:41:00,
2013-08-06 01:46:00,63.9,63.9,28.88,SW,221,0.0,0.0,100,0.00,,---,0.00,VWS V14.01,2013-08-06 06:46:00,
2013-08-06 01:51:00,63.9,63.9,28.88,SW,221,0.0,0.0,100,0.00,,---,0.00,VWS V14.01,2013-08-06 06:51:00,
2013-08-06 01:56:00,63.9,63.9,28.88,SW,221,0.0,0.0,100,0.00,,---,0.00,VWS V14.01,2013-08-06 06:56:00,
2013-08-06 02:01:00,63.9,63.9,28.88,SW,221,0.0,0.0,100,0.00,,---,0.00,VWS V14.01,2013-08-06 07:01:00,
2013-08-06 02:06:00,64.0,64.0,28.88,SW,221,0.0,0.0,100,0.00,,---,0.00,VWS V14.01,2013-08-06 07:06:00,
2013-08-06 02:11:00,64.0,64.0,28.88,SW,221,0.0,0.0,100,0.00,,---,0.00,VWS V14.01,2013-08-06 07:11:00,
2013-08-06 02:16:00,63.9,63.9,28.88,SW,221,0.0,0.0,100,0.00,,---,0.00,VWS V14.01,2013-08-06 07:16:00,
2013-08-06 02:21:00,63.9,63.9,28.88,SW,221,0.0,0.0,100,0.00,,---,0.00,VWS V14.01,2013-08-06 07:21:00,
2013-08-06 02:26:00,63.9,63.9,28.88,SW,221,0.0,0.0,100,0.00,,---,0.00,VWS V14.01,2013-08-06 07:26:00,
2013-08-06 02:31:00,63.9,63.9,28.85,SW,221,0.0,0.0,100,0.00,,---,0.00,VWS V14.01,2013-08-06 07:31:00,
2013-08-06 02:36:00,63.9,63.9,28.85,SW,221,0.0,0.0,100,0.00,,---,0.00,VWS V14.01,2013-08-06 07:36:00,
2013-08-06 02:41:00,63.9,63.9,28.85,SW,221,0.0,0.0,100,0.00,,---,0.00,VWS V14.01,2013-08-06 07:41:00,
2013-08-06 02:46:00,63.9,63.9,28.88,SW,221,0.0,0.0,100,0.00,,---,0.00,VWS V14.01,2013-08-06 07:46:00,
2013-08-06 02:51:00,63.9,63.9,28.88,SW,221,0.0,0.0,100,0.00,,---,0.00,VWS V14.01,2013-08-06 07:51:00,
2013-08-06 02:56:00,64.0,64.0,28.88,SW,221,0.0,0.0,100,0.00,,---,0.00,VWS V14.01,2013-08-06 07:56:00,
2013-08-06 03:01:00,64.0,64.0,28.88,SW,221,0.0,0.0,100,0.00,,---,0.00,VWS V14.01,2013-08-06 08:01:00,
2013-08-06 03:06:00,64.0,64.0,28.85,SW,221,0.0,0.0,100,0.00,,---,0.00,VWS V14.01,2013-08-06 08:06:00,
2013-08-06 03:11:00,64.0,64.0,28.85,SW,221,0.0,0.0,100,0.00,,---,0.00,VWS V14.01,2013-08-06 08:11:00,
2013-08-06 03:16:00,64.0,64.0,28.85,SW,221,0.0,0.0,100,0.00,,---,0.00,VWS V14.01,2013-08-06 08:16:00,
2013-08-06 03:21:00,64.0,64.0,28.85,SW,221,0.0,0.0,100,0.00,,---,0.00,VWS V14.01,2013-08-06 08:21:00,
2013-08-06 03:26:00,63.9,63.9,28.85,SW,221,0.0,0.0,100,0.00,,---,0.00,VWS V14.01,2013-08-06 08:26:00,
2013-08-06 03:31:00,63.9,63.9,28.85,SW,221,0.0,0.0,100,0.00,,---,0.00,VWS V14.01,2013-08-06 08:31:00,
2013-08-06 03:36:00,64.0,64.0,28.85,SW,221,0.0,0.0,100,0.00,,---,0.00,VWS V14.01,2013-08-06 08:36:00,
2013-08-06 03:41:00,63.9,63.9,28.85,SW,221,0.0,0.0,100,0.00,,---,0.00,VWS V14.01,2013-08-06 08:41:00,
2013-08-06 03:46:00,63.9,63.9,28.85,SW,221,0.0,0.0,100,0.00,,---,0.00,VWS V14.01,2013-08-06 08:46:00,
2013-08-06 03:51:00,63.9,63.9,28.88,SW,221,0.0,0.0,100,0.00,,---,0.00,VWS V14.01,2013-08-06 08:51:00,
2013-08-06 03:56:00,63.9,63.9,28.88,SW,221,0.0,0.0,100,0.00,,---,0.00,VWS V14.01,2013-08-06 08:56:00,
2013-08-06 04:01:00,63.9,63.9,28.88,SW,221,0.0,0.0,100,0.00,,---,0.00,VWS V14.01,2013-08-06 09:01:00,
2013-08-06 04:06:00,63.9,63.9,28.88,SW,221,0.0,0.0,100,0.00,,---,0.00,VWS V14.01,2013-08-06 09:06:00,
2013-08-06 04:11:00,63.9,63.9,28.88,SW,221,0.0,0.0,100,0.00,,---,0.00,VWS V14.01,2013-08-06 09:11:00,
2013-08-06 04:16:00,63.9,63.9,28.88,SW,221,0.0,0.0,100,0.00,,---,0.00,VWS V14.01,2013-08-06 09:16:00,
2013-08-06 04:21:00,63.9,63.9,28.88,SW,221,0.0,0.0,100,0.00,,---,0.00,VWS V14.01,2013-08-06 09:21:00,
2013-08-06 04:26:00,63.7,63.7,28.88,SW,221,0.0,0.0,100,0.00,,---,0.00,VWS V14.01,2013-08-06 09:26:00,
2013-08-06 04:31:00,63.7,63.7,28.88,SW,221,0.0,0.0,100,0.00,,---,0.00,VWS V14.01,2013-08-06 09:31:00,
2013-08-06 04:36:00,63.7,63.7,28.88,SW,221,0.0,0.0,100,0.00,,---,0.00,VWS V14.01,2013-08-06 09:36:00,
2013-08-06 04:41:00,63.7,63.7,28.88,SW,221,0.0,0.0,100,0.00,,---,0.00,VWS V14.01,2013-08-06 09:41:00,
2013-08-06 04:46:00,63.7,63.7,28.88,SW,221,0.0,0.0,100,0.00,,---,0.00,VWS V14.01,2013-08-06 09:46:00,
2013-08-06 04:51:00,63.7,63.7,28.85,SW,221,0.0,0.0,100,0.00,,---,0.00,VWS V14.01,2013-08-06 09:51:00,
2013-08-06 04:56:00,63.9,63.9,28.85,SW,221,0.0,0.0,100,0.00,,---,0.00,VWS V14.01,2013-08-06 09:56:00,
2013-08-06 05:01:00,63.9,63.9,28.85,SW,221,0.0,0.0,100,0.00,,---,0.00,VWS V14.01,2013-08-06 10:01:00,
2013-08-06 05:06:00,63.9,63.9,28.85,SW,221,0.0,0.0,100,0.00,,---,0.00,VWS V14.01,2013-08-06 10:06:00,
2013-08-06 05:11:00,63.7,63.7,28.85,SW,221,0.0,0.0,100,0.00,,---,0.00,VWS V14.01,2013-08-06 10:11:00,
2013-08-06 05:16:00,63.7,63.7,28.85,SW,221,0.0,0.0,100,0.00,,---,0.00,VWS V14.01,2013-08-06 10:16:00,
2013-08-06 05:21:00,63.7,63.7,28.85,SW,221,0.0,0.0,100,0.00,,---,0.00,VWS V14.01,2013-08-06 10:21:00,
2013-08-06 05:26:00,63.7,63.7,28.85,SW,221,0.0,0.0,100,0.00,,---,0.00,VWS V14.01,2013-08-06 10:26:00,
2013-08-06 05:31:00,63.7,63.7,28.85,SW,221,0.0,0.0,100,0.00,,---,0.00,VWS V14.01,2013-08-06 10:31:00,
2013-08-06 05:36:00,63.7,63.7,28.85,WNW,282,0.0,0.0,100,0.00,,---,0.00,VWS V14.01,2013-08-06 10:36:00,
2013-08-06 05:41:00,63.7,63.7,28.85,West,278,0.0,0.0,100,0.00,,---,0.00,VWS V14.01,2013-08-06 10:41:00,
2013-08-06 05:46:00,63.7,63.7,28.85,West,278,0.0,0.0,100,0.00,,---,0.00,VWS V14.01,2013-08-06 10:46:00,
2013-08-06 05:51:00,63.9,63.9,28.85,West,278,0.0,0.0,100,0.00,,---,0.00,VWS V14.01,2013-08-06 10:51:00,
2013-08-06 05:56:00,63.7,63.7,28.85,West,278,0.0,0.0,100,0.00,,---,0.00,VWS V14.01,2013-08-06 10:56:00,
2013-08-06 06:01:00,63.7,63.7,28.85,West,278,0.0,0.0,100,0.00,,---,0.00,VWS V14.01,2013-08-06 11:01:00,
2013-08-06 06:06:00,63.7,63.7,28.85,West,278,0.0,0.0,100,0.00,,---,0.00,VWS V14.01,2013-08-06 11:06:00,
2013-08-06 06:11:00,63.7,63.7,28.85,West,278,0.0,0.0,100,0.00,,---,0.00,VWS V14.01,2013-08-06 11:11:00,
2013-08-06 06:16:00,63.5,63.5,28.85,West,278,0.0,0.0,100,0.00,,---,0.00,VWS V14.01,2013-08-06 11:16:00,
2013-08-06 06:21:00,63.5,63.5,28.85,West,278,0.0,0.0,100,0.00,,---,0.00,VWS V14.01,2013-08-06 11:21:00,
2013-08-06 06:26:00,63.5,63.5,28.85,West,278,0.0,0.0,100,0.00,,---,0.00,VWS V14.01,2013-08-06 11:26:00,
2013-08-06 06:31:00,63.5,63.5,28.85,West,278,0.0,0.0,100,0.00,,---,0.00,VWS V14.01,2013-08-06 11:31:00,
2013-08-06 06:36:00,63.7,63.7,28.88,West,278,0.0,0.0,100,0.00,,---,0.00,VWS V14.01,2013-08-06 11:36:00,
2013-08-06 06:40:00,63.7,63.7,28.88,West,278,0.0,0.0,100,0.00,,---,0.00,VWS V14.01,2013-08-06 11:40:00,
2013-08-06 06:45:00,63.7,63.7,28.88,West,278,0.0,0.0,100,0.00,,---,0.00,VWS V14.01,2013-08-06 11:45:00,
2013-08-06 06:50:00,63.9,63.9,28.85,West,278,0.0,0.0,100,0.00,,---,0.00,VWS V14.01,2013-08-06 11:50:00,
2013-08-06 06:55:00,63.9,63.9,28.85,West,277,0.0,0.0,100,0.00,,---,0.00,VWS V14.01,2013-08-06 11:55:00,
2013-08-06 07:00:00,64.0,64.0,28.85,West,277,0.0,0.0,100,0.00,,---,0.00,VWS V14.01,2013-08-06 12:00:00,
2013-08-06 07:05:00,64.0,64.0,28.85,West,277,0.0,0.0,100,0.00,,---,0.00,VWS V14.01,2013-08-06 12:05:00,
2013-08-06 07:10:00,64.2,64.2,28.85,West,277,0.0,0.0,100,0.00,,---,0.00,VWS V14.01,2013-08-06 12:10:00,
2013-08-06 07:15:00,64.4,64.4,28.85,West,277,0.0,0.0,100,0.00,,---,0.00,VWS V14.01,2013-08-06 12:15:00,
2013-08-06 07:20:00,64.4,64.4,28.85,West,277,0.0,0.0,100,0.00,,---,0.00,VWS V14.01,2013-08-06 12:20:00,
2013-08-06 07:25:00,64.8,64.8,28.85,NW,317,2.7,4.0,100,0.00,,---,0.00,VWS V14.01,2013-08-06 12:25:00,
2013-08-06 07:30:00,65.1,65.1,28.85,WNW,288,0.0,4.0,100,0.00,,---,0.00,VWS V14.01,2013-08-06 12:30:00,
2013-08-06 07:35:00,65.5,65.5,28.88,WSW,256,0.0,0.0,100,0.00,,---,0.00,VWS V14.01,2013-08-06 12:35:00,
2013-08-06 07:40:00,65.5,65.5,28.88,West,272,3.6,3.6,100,0.00,,---,0.00,VWS V14.01,2013-08-06 12:40:00,
2013-08-06 07:45:00,65.7,65.7,28.88,WSW,249,0.0,0.0,100,0.00,,---,0.00,VWS V14.01,2013-08-06 12:45:00,
2013-08-06 07:50:00,65.7,65.7,28.88,SW,223,0.0,0.0,100,0.00,,---,0.00,VWS V14.01,2013-08-06 12:50:00,
2013-08-06 07:55:00,65.8,65.8,28.88,WSW,253,0.0,0.0,100,0.00,,---,0.00,VWS V14.01,2013-08-06 12:55:00,
2013-08-06 08:00:00,66.0,66.0,28.88,WSW,253,0.0,0.0,100,0.00,,---,0.00,VWS V14.01,2013-08-06 13:00:00,
2013-08-06 08:05:00,66.2,66.2,28.88,WSW,253,0.0,0.0,100,0.00,,---,0.00,VWS V14.01,2013-08-06 13:05:00,
2013-08-06 08:10:00,66.6,66.6,28.88,NW,325,4.0,4.0,100,0.00,,---,0.00,VWS V14.01,2013-08-06 13:10:00,
2013-08-06 08:15:00,66.7,66.7,28.88,SSW,211,0.0,2.2,100,0.00,,---,0.00,VWS V14.01,2013-08-06 13:15:00,
2013-08-06 08:20:00,66.9,66.9,28.88,West,263,0.0,2.7,100,0.00,,---,0.00,VWS V14.01,2013-08-06 13:20:00,
2013-08-06 08:25:00,66.9,66.9,28.88,West,276,3.1,3.1,100,0.00,,---,0.00,VWS V14.01,2013-08-06 13:25:00,
2013-08-06 08:30:00,67.1,67.1,28.88,West,271,3.6,3.6,100,0.00,,---,0.00,VWS V14.01,2013-08-06 13:30:00,
2013-08-06 08:35:00,67.1,67.1,28.88,WSW,242,0.0,2.7,100,0.00,,---,0.00,VWS V14.01,2013-08-06 13:35:00,
2013-08-06 08:40:00,67.3,67.3,28.88,WSW,254,3.1,3.1,100,0.00,,---,0.00,VWS V14.01,2013-08-06 13:40:00,
2013-08-06 08:45:00,67.3,67.3,28.88,West,278,3.1,4.9,100,0.00,,---,0.00,VWS V14.01,2013-08-06 13:45:00,
2013-08-06 08:50:00,67.3,67.3,28.88,West,276,3.1,3.6,100,0.00,,---,0.00,VWS V14.01,2013-08-06 13:50:00,
2013-08-06 08:55:00,67.3,67.3,28.88,West,266,2.2,4.0,100,0.00,,---,0.00,VWS V14.01,2013-08-06 13:55:00,
2013-08-06 09:00:00,67.5,67.5,28.88,West,277,0.0,2.7,100,0.00,,---,0.00,VWS V14.01,2013-08-06 14:00:00,
2013-08-06 09:05:00,67.5,67.5,28.85,WSW,255,2.7,5.4,100,0.00,,---,0.00,VWS V14.01,2013-08-06 14:05:00,
2013-08-06 09:10:00,67.5,67.5,28.85,West,279,0.0,2.2,100,0.00,,---,0.00,VWS V14.01,2013-08-06 14:10:00,
2013-08-06 09:15:00,67.5,67.5,28.85,West,260,3.1,4.9,100,0.00,,---,0.00,VWS V14.01,2013-08-06 14:15:00,
2013-08-06 09:20:00,67.5,67.5,28.88,West,267,3.1,3.6,100,0.00,,---,0.00,VWS V14.01,2013-08-06 14:20:00,
2013-08-06 09:25:00,67.3,67.3,28.88,WNW,286,3.1,3.1,100,0.00,,---,0.00,VWS V14.01,2013-08-06 14:25:00,
2013-08-06 09:30:00,67.3,67.3,28.88,NW,307,3.6,3.6,100,0.00,,---,0.00,VWS V14.01,2013-08-06 14:30:00,
2013-08-06 09:35:00,67.5,67.5,28.88,WSW,246,0.0,2.2,100,0.00,,---,0.00,VWS V14.01,2013-08-06 14:35:00,
2013-08-06 09:40:00,67.8,67.8,28.88,SW,232,3.1,3.1,100,0.00,,---,0.00,VWS V14.01,2013-08-06 14:40:00,
2013-08-06 09:45:00,68.0,68.0,28.88,South,169,0.0,0.0,100,0.00,,---,0.00,VWS V14.01,2013-08-06 14:45:00,
2013-08-06 09:50:00,68.5,68.5,28.88,WNW,287,2.7,3.1,100,0.00,,---,0.00,VWS V14.01,2013-08-06 14:50:00,
2013-08-06 09:55:00,68.7,68.7,28.88,WNW,292,3.1,5.4,100,0.00,,---,0.00,VWS V14.01,2013-08-06 14:55:00,
2013-08-06 10:00:00,69.1,69.1,28.88,NW,312,3.6,3.6,100,0.00,,---,0.00,VWS V14.01,2013-08-06 15:00:00,
2013-08-06 10:05:00,69.3,69.3,28.88,NW,319,4.0,4.0,100,0.00,,---,0.00,VWS V14.01,2013-08-06 15:05:00,
2013-08-06 10:10:00,69.3,69.3,28.88,WSW,245,3.6,3.6,100,0.00,,---,0.00,VWS V14.01,2013-08-06 15:10:00,
2013-08-06 10:15:00,69.3,69.3,28.88,WNW,288,3.1,3.6,100,0.00,,---,0.00,VWS V14.01,2013-08-06 15:15:00,
2013-08-06 10:20:00,69.4,69.4,28.88,NW,321,7.2,7.2,100,0.00,,---,0.00,VWS V14.01,2013-08-06 15:20:00,
2013-08-06 10:25:00,69.4,69.4,28.88,WNW,283,5.8,5.8,100,0.00,,---,0.00,VWS V14.01,2013-08-06 15:25:00,
2013-08-06 10:30:00,69.6,69.6,28.88,West,279,5.4,5.4,100,0.00,,---,0.00,VWS V14.01,2013-08-06 15:30:00,
2013-08-06 10:35:00,69.8,69.8,28.88,NW,316,4.0,5.8,100,0.00,,---,0.00,VWS V14.01,2013-08-06 15:35:00,
2013-08-06 10:40:00,69.8,69.8,28.88,SE,145,3.1,3.1,100,0.00,,---,0.00,VWS V14.01,2013-08-06 15:40:00,
2013-08-06 10:45:00,70.0,70.0,28.88,NW,313,4.0,4.0,100,0.00,,---,0.00,VWS V14.01,2013-08-06 15:45:00,
2013-08-06 10:50:00,70.2,70.2,28.88,SW,225,3.6,3.6,100,0.00,,---,0.00,VWS V14.01,2013-08-06 15:50:00,
2013-08-06 10:55:00,70.3,70.3,28.88,WNW,288,2.2,3.6,100,0.00,,---,0.00,VWS V14.01,2013-08-06 15:55:00,
2013-08-06 11:00:00,70.3,70.3,28.88,SW,232,2.7,2.7,100,0.00,,---,0.00,VWS V14.01,2013-08-06 16:00:00,
2013-08-06 11:05:00,70.5,70.5,28.88,South,190,2.7,3.6,100,0.00,,---,0.00,VWS V14.01,2013-08-06 16:05:00,
2013-08-06 11:10:00,70.5,70.5,28.88,West,281,2.2,2.7,100,0.00,,---,0.00,VWS V14.01,2013-08-06 16:10:00,
2013-08-06 11:15:00,70.9,70.9,28.88,WNW,291,4.0,4.0,100,0.00,,---,0.00,VWS V14.01,2013-08-06 16:15:00,
2013-08-06 11:20:00,71.4,71.4,28.88,West,266,2.7,2.7,100,0.00,,---,0.00,VWS V14.01,2013-08-06 16:20:00,
2013-08-06 11:25:00,71.6,71.6,28.88,WSW,243,5.8,5.8,100,0.00,,---,0.00,VWS V14.01,2013-08-06 16:25:00,
2013-08-06 11:30:00,71.8,71.8,28.88,NNW,334,3.1,3.1,100,0.00,,---,0.00,VWS V14.01,2013-08-06 16:30:00,
2013-08-06 11:35:00,72.1,72.2,28.88,WSW,244,2.7,2.7,100,0.00,,---,0.00,VWS V14.01,2013-08-06 16:35:00,
2013-08-06 11:40:00,72.1,72.2,28.88,NNW,337,2.2,4.9,100,0.00,,---,0.00,VWS V14.01,2013-08-06 16:40:00,
2013-08-06 11:45:00,72.1,72.2,28.88,West,262,4.9,4.9,100,0.00,,---,0.00,VWS V14.01,2013-08-06 16:45:00,
2013-08-06 11:50:00,72.1,72.2,28.88,WNW,287,3.6,7.6,100,0.00,,---,0.00,VWS V14.01,2013-08-06 16:50:00,
2013-08-06 11:55:00,72.1,72.2,28.88,West,270,2.2,4.0,100,0.00,,---,0.00,VWS V14.01,2013-08-06 16:55:00,
2013-08-06 12:00:00,72.5,72.5,28.88,West,274,5.4,5.4,100,0.00,,---,0.00,VWS V14.01,2013-08-06 17:00:00,
2013-08-06 12:05:00,72.7,72.7,28.88,West,262,3.1,3.1,100,0.00,,---,0.00,VWS V14.01,2013-08-06 17:05:00,
2013-08-06 12:10:00,73.2,73.2,28.88,West,261,3.1,3.1,100,0.00,,---,0.00,VWS V14.01,2013-08-06 17:10:00,
2013-08-06 12:15:00,73.6,73.6,28.88,SW,219,2.7,3.1,100,0.00,,---,0.00,VWS V14.01,2013-08-06 17:15:00,
2013-08-06 12:20:00,73.8,73.8,28.88,West,266,2.7,3.1,100,0.00,,---,0.00,VWS V14.01,2013-08-06 17:20:00,
2013-08-06 12:25:00,74.7,74.7,28.88,West,272,4.0,5.4,100,0.00,,---,0.00,VWS V14.01,2013-08-06 17:25:00,
2013-08-06 12:27:00,75.2,74.9,28.88,WSW,243,3.6,8.3,99,0.00,,---,0.00,VWS V14.01,2013-08-06 17:27:00,
2013-08-06 12:32:00,75.4,72.2,28.85,WSW,245,8.7,8.7,90,0.00,,---,0.00,VWS V14.01,2013-08-06 17:32:00,
2013-08-06 12:37:00,75.0,71.9,28.85,NNW,328,5.8,5.8,90,0.00,,---,0.00,VWS V14.01,2013-08-06 17:37:00,
2013-08-06 12:42:00,75.0,69.9,28.85,WNW,285,4.0,5.8,84,0.00,,---,0.00,VWS V14.01,2013-08-06 17:42:00,
2013-08-06 12:47:00,75.2,69.0,28.85,WSW,256,7.6,7.6,81,0.00,,---,0.00,VWS V14.01,2013-08-06 17:47:00,
2013-08-06 12:52:00,75.4,63.2,28.85,NNW,338,7.6,7.6,66,0.00,,---,0.00,VWS V14.01,2013-08-06 17:52:00,
2013-08-06 12:56:00,75.4,66.9,28.85,SW,232,5.8,5.8,75,0.00,,---,0.00,VWS V14.01,2013-08-06 17:56:00,
2013-08-06 13:01:00,75.7,67.3,28.85,WNW,288,6.3,6.3,75,0.00,,---,0.00,VWS V14.01,2013-08-06 18:01:00,
2013-08-06 13:06:00,76.1,67.6,28.85,North,353,4.9,7.6,75,0.00,,---,0.00,VWS V14.01,2013-08-06 18:06:00,
2013-08-06 13:11:00,76.6,64.4,28.85,WSW,258,0.0,7.6,66,0.00,,---,0.00,VWS V14.01,2013-08-06 18:11:00,
2013-08-06 13:16:00,77.0,63.5,28.85,WSW,245,2.2,7.6,63,0.00,,---,0.00,VWS V14.01,2013-08-06 18:16:00,
2013-08-06 13:17:00,77.0,63.5,28.85,WSW,245,2.2,7.6,63,0.00,,---,0.00,VWS V14.01,2013-08-06 18:17:00,
2013-08-06 13:22:00,77.7,64.1,28.85,NW,305,3.6,7.6,63,0.00,,---,0.00,VWS V14.01,2013-08-06 18:22:00,
2013-08-06 13:27:00,77.7,64.1,28.85,WSW,252,3.1,5.4,63,0.00,,---,0.00,VWS V14.01,2013-08-06 18:27:00,
2013-08-06 13:32:00,78.1,64.5,28.85,West,270,10.5,10.5,63,0.00,,---,0.00,VWS V14.01,2013-08-06 18:32:00,
2013-08-06 13:36:00,78.4,63.4,28.85,NNW,332,4.9,6.7,60,0.00,,---,0.00,VWS V14.01,2013-08-06 18:36:00,
2013-08-06 13:41:00,78.6,63.6,28.85,NNW,338,7.6,7.6,60,0.00,,---,0.00,VWS V14.01,2013-08-06 18:41:00,
2013-08-06 13:46:00,79.2,65.5,28.85,WNW,290,5.8,5.8,63,0.00,,---,0.00,VWS V14.01,2013-08-06 18:46:00,
2013-08-06 13:51:00,79.5,59.8,28.85,WSW,248,5.4,8.1,51,0.00,,---,0.00,VWS V14.01,2013-08-06 18:51:00,
2013-08-06 13:56:00,79.7,56.5,28.85,NW,314,3.6,4.0,45,0.00,,---,0.00,VWS V14.01,2013-08-06 18:56:00,
2013-08-06 14:01:00,79.2,59.5,28.82,SW,227,2.7,3.1,51,0.00,,---,0.00,VWS V14.01,2013-08-06 19:01:00,
2013-08-06 14:06:00,78.6,63.6,28.82,WNW,285,7.6,8.1,60,0.00,,---,0.00,VWS V14.01,2013-08-06 19:06:00,
2013-08-06 14:11:00,78.1,60.1,28.82,West,274,4.0,4.0,54,0.00,,---,0.00,VWS V14.01,2013-08-06 19:11:00,
2013-08-06 14:16:00,77.7,62.7,28.85,West,271,5.4,5.8,60,0.00,,---,0.00,VWS V14.01,2013-08-06 19:16:00,
2013-08-06 14:21:00,77.9,62.9,28.85,West,281,4.0,4.0,60,0.00,,---,0.00,VWS V14.01,2013-08-06 19:21:00,
2013-08-06 14:26:00,77.9,62.9,28.85,NW,326,3.6,5.8,60,0.00,,---,0.00,VWS V14.01,2013-08-06 19:26:00,
2013-08-06 14:31:00,78.1,63.1,28.82,West,274,6.3,6.3,60,0.00,,---,0.00,VWS V14.01,2013-08-06 19:31:00,
2013-08-06 14:36:00,77.9,62.9,28.82,WNW,288,4.0,4.9,60,0.00,,---,0.00,VWS V14.01,2013-08-06 19:36:00,
2013-08-06 14:41:00,77.7,62.7,28.82,NNW,338,8.7,8.7,60,0.00,,---,0.00,VWS V14.01,2013-08-06 19:41:00,
2013-08-06 14:46:00,77.5,62.6,28.82,WNW,289,8.7,9.6,60,0.00,,---,0.00,VWS V14.01,2013-08-06 19:46:00,
2013-08-06 14:51:00,77.4,62.4,28.82,WNW,297,4.0,5.4,60,0.00,,---,0.00,VWS V14.01,2013-08-06 19:51:00,
2013-08-06 14:56:00,77.2,62.2,28.82,West,264,3.1,5.4,60,0.00,,---,0.00,VWS V14.01,2013-08-06 19:56:00,
2013-08-06 15:01:00,77.4,63.8,28.82,WNW,300,2.7,5.8,63,0.00,,---,0.00,VWS V14.01,2013-08-06 20:01:00,
2013-08-06 15:06:00,77.5,62.6,28.82,WNW,295,4.0,5.8,60,0.00,,---,0.00,VWS V14.01,2013-08-06 20:06:00,
2013-08-06 15:11:00,77.7,54.7,28.82,SW,226,3.6,4.9,45,0.00,,---,0.00,VWS V14.01,2013-08-06 20:11:00,
2013-08-06 15:16:00,77.7,54.7,28.82,WSW,242,3.6,6.3,45,0.00,,---,0.00,VWS V14.01,2013-08-06 20:16:00,
2013-08-06 15:21:00,78.1,55.0,28.82,West,281,4.9,8.7,45,0.00,,---,0.00,VWS V14.01,2013-08-06 20:21:00,
2013-08-06 15:26:00,78.1,55.0,28.82,WNW,291,3.6,4.0,45,0.00,,---,0.00,VWS V14.01,2013-08-06 20:26:00,
2013-08-06 15:31:00,78.1,55.0,28.82,West,264,7.2,7.2,45,0.00,,---,0.00,VWS V14.01,2013-08-06 20:31:00,
2013-08-06 15:32:00,78.1,55.0,28.82,WNW,289,9.6,9.6,45,0.00,,---,0.00,VWS V14.01,2013-08-06 20:32:00,
2013-08-06 15:37:00,78.1,51.1,28.82,West,265,5.4,5.4,39,0.00,,---,0.00,VWS V14.01,2013-08-06 20:37:00,
2013-08-06 15:42:00,78.1,51.1,28.82,West,280,9.6,9.6,39,0.00,,---,0.00,VWS V14.01,2013-08-06 20:42:00,
2013-08-06 15:47:00,78.1,51.1,28.82,NW,317,10.1,10.1,39,0.00,,---,0.00,VWS V14.01,2013-08-06 20:47:00,
2013-08-06 15:52:00,78.1,51.1,28.82,WNW,294,8.7,8.7,39,0.00,,---,0.00,VWS V14.01,2013-08-06 20:52:00,
2013-08-06 15:57:00,78.1,51.1,28.82,South,178,8.1,8.1,39,0.00,,---,0.00,VWS V14.01,2013-08-06 20:57:00,
2013-08-06 16:02:00,78.1,51.1,28.82,NNW,336,3.1,4.9,39,0.00,,---,0.00,VWS V14.01,2013-08-06 21:02:00,
2013-08-06 16:07:00,78.3,51.3,28.82,WNW,295,5.4,6.3,39,0.00,,---,0.00,VWS V14.01,2013-08-06 21:07:00,
2013-08-06 16:11:00,78.3,51.3,28.82,NNW,340,5.8,8.7,39,0.00,,---,0.00,VWS V14.01,2013-08-06 21:11:00,
2013-08-06 16:16:00,78.4,51.5,28.82,WNW,289,2.7,4.0,39,0.00,,---,0.00,VWS V14.01,2013-08-06 21:16:00,
2013-08-06 16:21:00,78.4,51.5,28.82,WSW,257,4.5,6.3,39,0.00,,---,0.00,VWS V14.01,2013-08-06 21:21:00,
2013-08-06 16:26:00,78.4,51.5,28.82,West,281,4.0,4.9,39,0.00,,---,0.00,VWS V14.01,2013-08-06 21:26:00,
2013-08-06 16:31:00,78.4,51.5,28.82,West,260,3.1,5.4,39,0.00,,---,0.00,VWS V14.01,2013-08-06 21:31:00,
2013-08-06 16:36:00,78.6,51.6,28.82,NNW,329,3.6,10.1,39,0.00,,---,0.00,VWS V14.01,2013-08-06 21:36:00,
2013-08-06 16:41:00,78.8,49.6,28.82,West,266,5.4,5.4,36,0.00,,---,0.00,VWS V14.01,2013-08-06 21:41:00,
2013-08-06 16:46:00,78.6,51.6,28.82,WNW,296,3.1,5.8,39,0.00,,---,0.00,VWS V14.01,2013-08-06 21:46:00,
2013-08-06 16:51:00,78.8,49.6,28.82,WNW,301,3.1,5.4,36,0.00,,---,0.00,VWS V14.01,2013-08-06 21:51:00,
2013-08-06 16:56:00,78.8,49.6,28.82,NNW,333,0.0,5.4,36,0.00,,---,0.00,VWS V14.01,2013-08-06 21:56:00,
2013-08-06 17:01:00,78.6,51.6,28.82,WNW,301,3.6,5.8,39,0.00,,---,0.00,VWS V14.01,2013-08-06 22:01:00,
2013-08-06 17:06:00,78.6,51.6,28.82,West,260,5.8,6.3,39,0.00,,---,0.00,VWS V14.01,2013-08-06 22:06:00,
2013-08-06 17:11:00,78.8,49.6,28.82,NNW,345,4.9,5.8,36,0.00,,---,0.00,VWS V14.01,2013-08-06 22:11:00,
2013-08-06 17:16:00,78.8,49.6,28.82,NW,324,3.6,6.3,36,0.00,,---,0.00,VWS V14.01,2013-08-06 22:16:00,
2013-08-06 17:21:00,78.6,51.6,28.82,North,0,4.0,6.3,39,0.00,,---,0.00,VWS V14.01,2013-08-06 22:21:00,
2013-08-06 17:26:00,78.8,49.6,28.82,NW,312,4.0,4.0,36,0.00,,---,0.00,VWS V14.01,2013-08-06 22:26:00,
2013-08-06 17:31:00,78.6,51.6,28.82,NW,326,3.1,3.1,39,0.00,,---,0.00,VWS V14.01,2013-08-06 22:31:00,
2013-08-06 17:36:00,78.6,51.6,28.82,NW,321,5.8,5.8,39,0.00,,---,0.00,VWS V14.01,2013-08-06 22:36:00,
2013-08-06 17:41:00,78.4,51.5,28.82,North,353,3.1,4.0,39,0.00,,---,0.00,VWS V14.01,2013-08-06 22:41:00,
2013-08-06 17:46:00,78.4,51.5,28.79,West,274,3.6,4.0,39,0.00,,---,0.00,VWS V14.01,2013-08-06 22:46:00,
2013-08-06 17:51:00,78.4,51.5,28.79,WNW,303,4.9,6.3,39,0.00,,---,0.00,VWS V14.01,2013-08-06 22:51:00,
2013-08-06 17:56:00,78.4,51.5,28.79,NNW,327,3.6,4.0,39,0.00,,---,0.00,VWS V14.01,2013-08-06 22:56:00,
2013-08-06 18:01:00,78.3,55.2,28.82,West,281,2.7,4.0,45,0.00,,---,0.00,VWS V14.01,2013-08-06 23:01:00,
2013-08-06 18:06:00,77.7,50.8,28.82,WSW,257,4.0,4.0,39,0.00,,---,0.00,VWS V14.01,2013-08-06 23:06:00,
2013-08-06 18:11:00,77.7,54.7,28.82,West,278,2.7,3.6,45,0.00,,---,0.00,VWS V14.01,2013-08-06 23:11:00,
2013-08-06 18:16:00,77.5,54.5,28.82,WNW,289,2.2,2.2,45,0.00,,---,0.00,VWS V14.01,2013-08-06 23:16:00,
2013-08-06 18:21:00,77.4,62.4,28.82,WNW,297,0.0,0.0,60,0.00,,---,0.00,VWS V14.01,2013-08-06 23:21:00,
2013-08-06 18:26:00,77.0,62.1,28.82,WNW,293,2.2,3.1,60,0.00,,---,0.00,VWS V14.01,2013-08-06 23:26:00,
2013-08-06 18:31:00,76.8,61.9,28.82,West,280,0.0,0.0,60,0.00,,---,0.00,VWS V14.01,2013-08-06 23:31:00,
2013-08-06 18:36:00,76.5,62.9,28.82,West,263,0.0,2.2,63,0.00,,---,0.00,VWS V14.01,2013-08-06 23:36:00,
2013-08-06 18:41:00,76.3,62.8,28.82,West,263,0.0,0.0,63,0.00,,---,0.00,VWS V14.01,2013-08-06 23:41:00,
2013-08-06 18:46:00,76.1,63.9,28.82,West,263,0.0,0.0,66,0.00,,---,0.00,VWS V14.01,2013-08-06 23:46:00,
2013-08-06 18:51:00,75.7,63.6,28.82,West,263,0.0,0.0,66,0.00,,---,0.00,VWS V14.01,2013-08-06 23:51:00,
2013-08-06 18:56:00,75.6,63.4,28.82,West,263,0.0,0.0,66,0.00,,---,0.00,VWS V14.01,2013-08-06 23:56:00,
2013-08-06 19:01:00,75.2,61.8,28.82,West,263,0.0,0.0,63,0.00,,---,0.00,VWS V14.01,2013-08-07 00:01:00,
2013-08-06 19:06:00,75.0,62.9,28.82,West,263,0.0,0.0,66,0.00,,---,0.00,VWS V14.01,2013-08-07 00:06:00,
2013-08-06 19:11:00,74.8,62.7,28.82,West,263,0.0,0.0,66,0.00,,---,0.00,VWS V14.01,2013-08-07 00:11:00,
2013-08-06 19:16:00,74.7,63.8,28.82,West,263,0.0,0.0,69,0.00,,---,0.00,VWS V14.01,2013-08-07 00:16:00,
2013-08-06 19:21:00,74.5,63.7,28.82,West,263,0.0,0.0,69,0.00,,---,0.00,VWS V14.01,2013-08-07 00:21:00,
2013-08-06 19:26:00,74.3,64.7,28.82,West,263,0.0,0.0,72,0.00,,---,0.00,VWS V14.01,2013-08-07 00:26:00,
2013-08-06 19:31:00,73.9,65.5,28.82,West,263,0.0,0.0,75,0.00,,---,0.00,VWS V14.01,2013-08-07 00:31:00,
2013-08-06 19:36:00,73.6,65.2,28.82,West,263,0.0,0.0,75,0.00,,---,0.00,VWS V14.01,2013-08-07 00:36:00,
2013-08-06 19:41:00,73.2,68.1,28.82,West,263,0.0,0.0,84,0.00,,---,0.00,VWS V14.01,2013-08-07 00:41:00,
2013-08-06 19:46:00,72.9,69.8,28.82,West,263,0.0,0.0,90,0.00,,---,0.00,VWS V14.01,2013-08-07 00:46:00,
2013-08-06 19:51:00,72.5,70.4,28.82,West,263,0.0,0.0,93,0.00,,---,0.00,VWS V14.01,2013-08-07 00:51:00,
2013-08-06 19:56:00,72.0,70.8,28.82,West,263,0.0,0.0,96,0.00,,---,0.00,VWS V14.01,2013-08-07 00:56:00,
2013-08-06 20:01:00,71.6,71.3,28.82,West,263,0.0,0.0,99,0.00,,---,0.00,VWS V14.01,2013-08-07 01:01:00,
2013-08-06 20:06:00,71.2,71.2,28.82,West,263,0.0,0.0,100,0.00,,---,0.00,VWS V14.01,2013-08-07 01:06:00,
2013-08-06 20:11:00,71.1,71.1,28.82,West,263,0.0,0.0,100,0.00,,---,0.00,VWS V14.01,2013-08-07 01:11:00,
2013-08-06 20:16:00,70.5,70.5,28.82,West,263,0.0,0.0,100,0.00,,---,0.00,VWS V14.01,2013-08-07 01:16:00,
2013-08-06 20:21:00,70.3,70.3,28.82,West,263,0.0,0.0,100,0.00,,---,0.00,VWS V14.01,2013-08-07 01:21:00,
2013-08-06 20:26:00,70.0,70.0,28.82,West,263,0.0,0.0,100,0.00,,---,0.00,VWS V14.01,2013-08-07 01:26:00,
2013-08-06 20:31:00,69.6,69.6,28.82,West,263,0.0,0.0,100,0.00,,---,0.00,VWS V14.01,2013-08-07 01:31:00,
2013-08-06 20:36:00,69.4,69.4,28.82,West,263,0.0,0.0,100,0.00,,---,0.00,VWS V14.01,2013-08-07 01:36:00,
2013-08-06 20:41:00,69.4,69.4,28.82,West,263,0.0,0.0,100,0.00,,---,0.00,VWS V14.01,2013-08-07 01:41:00,
2013-08-06 20:46:00,69.4,69.4,28.82,West,263,0.0,0.0,100,0.00,,---,0.00,VWS V14.01,2013-08-07 01:46:00,
2013-08-06 20:51:00,69.3,69.3,28.82,West,263,0.0,0.0,100,0.00,,---,0.00,VWS V14.01,2013-08-07 01:51:00,
2013-08-06 20:56:00,69.3,69.3,28.82,West,263,0.0,0.0,100,0.00,,---,0.00,VWS V14.01,2013-08-07 01:56:00,
2013-08-06 21:01:00,69.3,69.3,28.82,West,263,0.0,0.0,100,0.00,,---,0.00,VWS V14.01,2013-08-07 02:01:00,
2013-08-06 21:06:00,69.1,69.1,28.82,NW,326,0.0,0.0,100,0.00,,---,0.00,VWS V14.01,2013-08-07 02:06:00,
2013-08-06 21:11:00,68.7,68.7,28.82,NW,326,0.0,0.0,100,0.00,,---,0.00,VWS V14.01,2013-08-07 02:11:00,
2013-08-06 21:16:00,68.4,68.4,28.82,NW,326,0.0,0.0,100,0.00,,---,0.00,VWS V14.01,2013-08-07 02:16:00,
2013-08-06 21:21:00,68.2,68.2,28.79,NW,326,0.0,0.0,100,0.00,,---,0.00,VWS V14.01,2013-08-07 02:21:00,
2013-08-06 21:26:00,68.0,68.0,28.79,NW,326,0.0,0.0,100,0.00,,---,0.00,VWS V14.01,2013-08-07 02:26:00,
2013-08-06 21:31:00,67.6,67.6,28.79,NW,326,0.0,0.0,100,0.00,,---,0.00,VWS V14.01,2013-08-07 02:31:00,
2013-08-06 21:36:00,67.5,67.5,28.79,NW,326,0.0,0.0,100,0.00,,---,0.00,VWS V14.01,2013-08-07 02:36:00,
2013-08-06 21:41:00,67.3,67.3,28.79,NW,326,0.0,0.0,100,0.00,,---,0.00,VWS V14.01,2013-08-07 02:41:00,
2013-08-06 21:46:00,67.1,67.1,28.79,NW,326,0.0,0.0,100,0.00,,---,0.00,VWS V14.01,2013-08-07 02:46:00,
2013-08-06 21:51:00,66.9,66.9,28.79,NW,326,0.0,0.0,100,0.00,,---,0.00,VWS V14.01,2013-08-07 02:51:00,
2013-08-06 21:56:00,66.9,66.9,28.79,NW,326,0.0,0.0,100,0.00,,---,0.00,VWS V14.01,2013-08-07 02:56:00,
2013-08-06 22:01:00,66.7,66.7,28.79,NW,326,0.0,0.0,100,0.00,,---,0.00,VWS V14.01,2013-08-07 03:01:00,
2013-08-06 22:06:00,66.7,66.7,28.79,NW,326,0.0,0.0,100,0.00,,---,0.00,VWS V14.01,2013-08-07 03:06:00,
2013-08-06 22:11:00,66.6,66.6,28.79,NE,51,0.0,0.0,100,0.00,,---,0.00,VWS V14.01,2013-08-07 03:11:00,
2013-08-06 22:16:00,66.6,66.6,28.79,NE,51,0.0,0.0,100,0.00,,---,0.00,VWS V14.01,2013-08-07 03:16:00,
2013-08-06 22:21:00,66.6,66.6,28.79,NE,51,0.0,0.0,100,0.00,,---,0.00,VWS V14.01,2013-08-07 03:21:00,
2013-08-06 22:26:00,66.6,66.6,28.79,NE,51,0.0,0.0,100,0.00,,---,0.00,VWS V14.01,2013-08-07 03:26:00,
2013-08-06 22:31:00,66.6,66.6,28.79,NE,51,0.0,0.0,100,0.00,,---,0.00,VWS V14.01,2013-08-07 03:31:00,
2013-08-06 22:36:00,66.6,66.6,28.79,NE,51,0.0,0.0,100,0.00,,---,0.00,VWS V14.01,2013-08-07 03:36:00,
2013-08-06 22:41:00,66.6,66.6,28.79,NE,51,0.0,0.0,100,0.00,,---,0.00,VWS V14.01,2013-08-07 03:41:00,
2013-08-06 22:46:00,66.6,66.6,28.79,SW,219,0.0,0.0,100,0.00,,---,0.00,VWS V14.01,2013-08-07 03:46:00,
2013-08-06 22:51:00,66.7,66.7,28.79,SE,141,0.0,0.0,100,0.00,,---,0.00,VWS V14.01,2013-08-07 03:51:00,
2013-08-06 22:56:00,66.9,66.9,28.79,South,181,0.0,0.0,100,0.00,,---,0.00,VWS V14.01,2013-08-07 03:56:00,
2013-08-06 23:01:00,67.1,67.1,28.79,South,181,0.0,0.0,100,0.00,,---,0.00,VWS V14.01,2013-08-07 04:01:00,
2013-08-06 23:06:00,67.5,67.5,28.76,NNW,330,0.0,0.0,100,0.00,,---,0.00,VWS V14.01,2013-08-07 04:06:00,
2013-08-06 23:11:00,67.8,67.8,28.76,SW,227,0.0,0.0,100,0.00,,---,0.00,VWS V14.01,2013-08-07 04:11:00,
2013-08-06 23:16:00,68.2,68.2,28.76,SW,228,0.0,0.0,100,0.00,,---,0.00,VWS V14.01,2013-08-07 04:16:00,
2013-08-06 23:21:00,68.4,68.4,28.76,SW,228,0.0,0.0,100,0.00,,---,0.00,VWS V14.01,2013-08-07 04:21:00,
2013-08-06 23:26:00,68.5,68.5,28.76,SW,228,0.0,0.0,100,0.00,,---,0.00,VWS V14.01,2013-08-07 04:26:00,
2013-08-06 23:31:00,68.7,68.7,28.76,SW,227,0.0,0.0,100,0.00,,---,0.00,VWS V14.01,2013-08-07 04:31:00,
2013-08-06 23:36:00,68.5,68.5,28.76,SW,227,0.0,0.0,100,0.00,,---,0.00,VWS V14.01,2013-08-07 04:36:00,
2013-08-06 23:41:00,68.4,68.4,28.76,SW,227,0.0,0.0,100,0.00,,---,0.00,VWS V14.01,2013-08-07 04:41:00,
2013-08-06 23:46:00,68.4,68.4,28.76,ENE,57,15.9,15.9,100,0.00,,---,0.00,VWS V14.01,2013-08-07 04:46:00,
2013-08-06 23:51:00,67.3,67.3,28.79,NNW,336,6.3,6.3,100,0.00,,---,0.00,VWS V14.01,2013-08-07 04:51:00,
2013-08-06 23:56:00,66.4,66.4,28.79,ENE,72,15.4,15.4,100,0.00,,---,0.00,VWS V14.01,2013-08-07 04:56:00,